STARLINK-1587, 46157

Orbit data source: Space-Track

STARLINK-1587, 46157 is a payload satellite owned by SpaceX/Seattle (US) in LEO that was launched on Tue, 18 Aug 2020 UTC via an FALCON 9 launch vehicle from the Air Force Eastern Test Range (AFETR). Payload-class satellites include a variety of spacecraft equipped with specific instruments for various scientific and technological missions. These include communications satellites like Starlink; space stations such as the ISS; scientific satellites like the Hubble; Earth observation satellites from companies like Planet Labs, Umbra, and HawkEye 360; GPS; miniature CubeSats for education and research; and military/defense satellites.

Loading next visibility...
Identifier
46157, 2020-057AS
Orbit
LEO
Last TLE update
13 hours ago
Origin
Manufacturer
SpaceX/Seattle
Mission
Operational Commercial Communications
Bus & Motor
STARLINK, Unknown motor
Mass
260 kg wet, ~248 kg dry
Launch date (UTC)
2020-08-18 (5 years ago)
Launch vehicle
FALCON 9
Launch site
Air Force Eastern Test Range (AFETR)
Object type
Payload
Rocket body
Debris
Shape & HBR
Box + 1 Pan, 8.86 m
Radar Cross Section
13.562 m², Large (>1 m²)

Expand to show TLE details & history

TLE from 13 hours ago
0 STARLINK-1587
1 46157U 20057AS  25183.66465548 -.00001252  00000-0 -65158-4 0  9991
2 46157  53.0567 319.0195 0001400  92.3498 267.7651 15.06393601268946
Epoch: 2025-07-02T15:57Z
TLE epoch observation values (Epoch: 2025-07-02T15:57:06.233Z)
Latitude
-0.00005°
Longitude
158.80099°
Altitude
548.149 km
Speed
7.589 km/s
True Right ascension
21h 16m 04s
True Declination
0° 00' 00"
Sunlit
Object was in full shadow at epoch
Visualization orbit readout
Latitude
51.93797°
Longitude
-130.87939°
Altitude
552.559 km
Speed
7.592 km/s
Apparent Right ascension
03h 28m 39s
Apparent Declination
9° 03' 05"
Sunlit
Object is in daylight
Visualization observer readout
Local Sidereal Time
16:47:55
Azimuth
25.035° NE
Elevation
-37.708°
Doppler factor
1
Orbital elements
Apogee altitude
548.471 km
Perigee altitude
546.532 km
Semi-major axis
6,925.639 km
Eccentricity
0.00014
Inclination
53.0567°
RAAN
319.0195°
Arg. of periapsis
92.3498°
True anomaly
Unknown
Mean anomaly
267.7651°
Eccentric anomaly
Unknown
Mean motion
3.76577 °/min
Orbital period
95.6 mins
BSTAR
-0.000065158
Loading maneuver chart data...
Loading SW <> Apogee altitude chart data...

STARLINK-1587 Visibility forecast

Observer location: undefined°, undefined°

Span
Click to sort rows by Start time (UTC) header in descending order
Start Az.
Max El. time (UTC)
Max El. Az.
Max El.
End time (UTC)
End Az.
6 mins2025-07-03 11:13:28.653Z202.047° SSW2025-07-03 11:16:28.653Z132.239° SE35.371°2025-07-03 11:19:28.653Z65.704° ENE
6 mins2025-07-03 12:53:28.653Z277.549° WNW2025-07-03 12:56:28.653Z343.701° N26.466°2025-07-03 12:59:28.653Z33.078° NE
6 mins2025-07-03 17:55:28.653Z328.303° NNW2025-07-03 17:57:28.653Z14.314° NNE35.685°2025-07-03 18:01:28.653Z108.102° ESE
5 mins2025-07-03 19:35:28.653Z266.348° W2025-07-03 19:37:28.653Z223.404° SW22.211°2025-07-03 19:40:28.653Z176.107° S
|